Change the Weather History Date:

Sunday, December 2, 2012

  Actual Average Record
Temperature  
Mean Temperature 41 °F 34 °F  
Max Temperature 47 °F 41 °F 66 °F (1998)
Min Temperature 35 °F 27 °F -2 °F (1875)
Degree Days  
Heating Degree Days 24 31  
Month to date heating degree days 61 62  
Since 1 July heating degree days 1349 1466  
Cooling Degree Days 0 0  
Month to date cooling degree days 0 0  
Year to date cooling degree days 814 598  
Moisture  
Dew Point 40 °F    
Average Humidity 88    
Maximum Humidity 100    
Minimum Humidity 76    
Precipitation  
Precipitation 0.21 in 0.11 in 1.62 in (1878)
Month to date precipitation 0.26 0.21  
Year to date precipitation 33.20 36.63  
Snow  
Snow 0.00 in 0.30 in 6.20 in (1949)
Month to date snowfall 0.7 0.6  
Since 1 July snowfall 0.8 3.4  
Snow Depth 0.00 in    
Sea Level Pressure  
Sea Level Pressure 30.19 in    
Wind  
Wind Speed 13 mph (South)    
Max Wind Speed 22 mph    
Max Gust Speed 29 mph    
Visibility 6 miles    
Events Rain    
T = Trace of Precipitation, MM = Missing Value Source: NWS Daily Summary

Daily Weather History Graph

Daily Weather History Graph

Search for Another Location

Airport or City:

Trip Planner

Search our weather history database for the weather conditions in past years. The results will help you decide how hot, cold, wet, or windy it might be!

Date:

Astronomy

Dec. 02, 2012 Rise Set
Actual Time 7:07 AM EST 4:21 PM EST
Civil Twilight 6:35 AM EST 4:53 PM EST
Nautical Twilight 6:00 AM EST 5:28 PM EST
Astronomical Twilight 5:26 AM EST 6:03 PM EST
Moon 8:09 PM EST (12/2) 9:53 AM EST (12/2)
Length of Visible Light 10h 17m
Length of Day
9h 14m
Waning Gibbous, 86% of the Moon is Illuminated
Dec 2
Waning Gibbous
Dec 6
Last Quarter
Dec 13
New
Dec 20
First Quarter
Dec 28
Full

Hourly Weather History & Observations

Time (EST) Temp. Windchill Dew Point Humidity Pressure Visibility Wind Dir Wind Speed Gust Speed Precip Events Conditions
12:51 AM 36.0 °F 29.6 °F 35.1 °F 97% 30.40 in 5.0 mi SSE 8.1 mph - N/A   Overcast
1:51 AM 37.0 °F 31.0 °F 35.1 °F 93% 30.41 in 4.0 mi South 8.1 mph - N/A   Overcast
2:51 AM 37.0 °F 32.4 °F 36.0 °F 96% 30.41 in 5.0 mi SSE 5.8 mph - N/A   Overcast
3:51 AM 37.9 °F 32.7 °F 36.0 °F 93% 30.37 in 4.0 mi South 6.9 mph - N/A   Overcast
4:51 AM 39.0 °F 33.4 °F 37.0 °F 93% 30.35 in 5.0 mi South 8.1 mph - N/A   Overcast
5:51 AM 39.0 °F 32.3 °F 37.9 °F 96% 30.34 in 5.0 mi South 10.4 mph - N/A   Overcast
6:51 AM 39.2 °F 33.0 °F 37.4 °F 93% 30.30 in 5.0 mi South 9.2 mph 18.4 mph N/A   Overcast
7:14 AM 39.2 °F 33.6 °F 37.4 °F 93% 30.29 in 2.0 mi South 8.1 mph - N/A   Overcast
7:51 AM 41.0 °F 32.2 °F 39.0 °F 93% 30.29 in 2.0 mi South 18.4 mph 24.2 mph N/A   Overcast
8:03 AM 41.0 °F 33.5 °F 39.2 °F 93% 30.28 in 4.0 mi South 13.8 mph 21.9 mph N/A   Overcast
8:51 AM 41.0 °F 33.5 °F 39.0 °F 93% 30.28 in 5.0 mi South 13.8 mph 23.0 mph N/A   Overcast
9:51 AM 42.1 °F 35.2 °F 39.9 °F 92% 30.27 in 6.0 mi South 12.7 mph - N/A   Overcast
10:51 AM 44.1 °F 37.4 °F 39.9 °F 85% 30.23 in 10.0 mi South 13.8 mph 23.0 mph N/A   Overcast
11:09 AM 44.6 °F 38.4 °F 39.2 °F 81% 30.21 in 10.0 mi South 12.7 mph 20.7 mph N/A   Overcast
11:51 AM 45.0 °F 38.2 °F 39.9 °F 82% 30.19 in 10.0 mi South 15.0 mph 25.3 mph N/A   Mostly Cloudy
12:51 PM 45.0 °F 37.9 °F 39.9 °F 82% 30.13 in 10.0 mi South 16.1 mph 25.3 mph N/A   Overcast
1:51 PM 45.0 °F 37.6 °F 39.0 °F 80% 30.10 in 10.0 mi South 17.3 mph 25.3 mph N/A   Overcast
2:51 PM 45.0 °F 37.6 °F 39.0 °F 80% 30.08 in 10.0 mi South 17.3 mph 24.2 mph N/A   Overcast
3:51 PM 45.0 °F 37.4 °F 39.9 °F 82% 30.06 in 8.0 mi South 18.4 mph 26.5 mph N/A   Overcast
4:51 PM 46.0 °F 39.3 °F 39.9 °F 79% 30.05 in 9.0 mi South 16.1 mph 28.8 mph N/A   Overcast
5:51 PM 46.0 °F 39.6 °F 41.0 °F 83% 30.04 in 8.0 mi South 15.0 mph 23.0 mph 0.00 in Rain Light Rain
6:51 PM 46.0 °F 39.3 °F 43.0 °F 89% 30.04 in 3.0 mi South 16.1 mph 24.2 mph 0.11 in Rain Rain
7:51 PM 45.0 °F 38.2 °F 43.0 °F 93% 30.05 in 5.0 mi South 15.0 mph 21.9 mph 0.10 in   Overcast
8:07 PM 44.6 °F 38.8 °F 42.8 °F 93% 30.04 in 5.0 mi South 11.5 mph 19.6 mph N/A   Overcast
8:22 PM 44.6 °F 38.8 °F 42.8 °F 93% 30.05 in 5.0 mi South 11.5 mph 20.7 mph N/A   Overcast
8:51 PM 45.0 °F 39.7 °F 43.0 °F 93% 30.06 in 5.0 mi South 10.4 mph 19.6 mph N/A   Overcast
9:51 PM 45.0 °F 39.3 °F 43.0 °F 93% 30.05 in 4.0 mi South 11.5 mph - N/A   Overcast
10:35 PM 44.6 °F 39.2 °F 42.8 °F 93% 30.04 in 4.0 mi South 10.4 mph - N/A   Overcast
10:51 PM 44.6 °F 38.8 °F 42.8 °F 93% 30.04 in 4.0 mi South 11.5 mph - N/A   Overcast
11:51 PM 46.0 °F 40.6 °F 43.0 °F 89% 30.04 in 5.0 mi South 11.5 mph - N/A   Overcast